Temp
-11 -11 -11 -12 -12 -12 -12 -12 -12 -12 -12 -12 -11 -11 -11 -11 -11 -11 -11 -11 -10 -10 -9 -9 -9 -9 -10 -9 -10 -10 -10 -10 -10 -10 -10 -10 -10 -10 -10 -11 -11 -11 -11 -11 -11 -11 -12
-12 -12 -12 -12 -12 -12 -12 -12 -12 -12 -12 -12 -12 -11 -11 -11 -11 -11 -11 -11 -10 -10 -9 -9 -9 -10 -10 -10 -10 -10 -10 -10 -10 -10 -10 -10 -10 -10 -10 -10 -10 -11 -11 -11 -11 -11 -11
-12 -12 -12 -12 -12 -12 -12 -12 -12 -12 -12 -12 -12 -12 -11 -11 -11 -11 -11 -11 -11 -10 -10 -10 -10 -10 -10 -10 -10 -10 -10 -10 -10 -10 -10 -10 -10 -10 -10 -10 -11 -10 -10 -10 -11 -11 -11
-12 -13 -13 -12 -12 -12 -12 -12 -12 -12 -12 -12 -12 -12 -12 -11 -11 -11 -11 -11 -11 -11 -10 -10 -10 -10 -10 -10 -10 -10 -10 -10 -10 -10 -10 -10 -10 -10 -10 -10 -10 -10 -11 -10 -11 -11 -11
-12 -13 -13 -13 -13 -13 -12 -12 -12 -12 -12 -12 -12 -12 -12 -11 -11 -11 -11 -11 -11 -11 -11 -11 -10 -10 -10 -10 -10 -10 -10 -10 -10 -10 -10 -10 -10 -10 -10 -10 -10 -11 -11 -11 -11 -11 -11
-13 -13 -13 -13 -13 -13 -13 -13 -13 -12 -12 -12 -12 -12 -12 -12 -12 -12 -12 -12 -12 -11 -11 -11 -10 -10 -10 -10 -10 -10 -10 -10 -10 -10 -10 -10 -10 -10 -10 -10 -10 -11 -11 -11 -11 -11 -11
-12 -13 -13 -13 -13 -13 -13 -13 -13 -13 -12 -12 -12 -12 -12 -12 -12 -12 -12 -12 -12 -11 -11 -10 -10 -10 -10 -10 -10 -10 -9 -10 -10 -10 -10 -10 -10 -10 -10 -11 -11 -11 -11 -11 -11 -11 -11
-12 -12 -13 -13 -13 -13 -13 -13 -13 -12 -12 -12 -12 -12 -12 -12 -12 -12 -12 -12 -12 -11 -11 -10 -10 -10 -10 -10 -10 -10 -10 -10 -10 -10 -11 -11 -11 -11 -11 -11 -11 -11 -11 -11 -11 -11 -11
-12 -12 -12 -12 -13 -13 -13 -13 -12 -12 -12 -12 -12 -12 -12 -12 -12 -12 -12 -12 -12 -11 -11 -10 -10 -10 -10 -10 -10 -10 -10 -10 -11 -11 -11 -11 -11 -11 -11 -11 -11 -11 -11 -11 -11 -11 -11
-12 -12 -12 -12 -12 -12 -13 -13 -12 -12 -12 -12 -12 -12 -12 -12 -12 -12 -12 -11 -11 -11 -11 -11 -10 -10 -10 -10 -10 -11 -11 -11 -11 -11 -11 -11 -12 -12 -12 -12 -12 -12 -12 -12 -12 -12 -12
-13 -13 -12 -12 -12 -12 -12 -12 -12 -12 -12 -12 -12 -12 -12 -12 -12 -11 -11 -11 -11 -11 -11 -11 -11 -11 -11 -11 -11 -11 -11 -11 -11 -11 -12 -12 -12 -12 -12 -12 -12 -12 -12 -12 -12 -12 -12
-13 -13 -13 -13 -12 -12 -12 -12 -12 -12 -12 -12 -11 -11 -11 -11 -12 -12 -11 -11 -11 -11 -11 -11 -11 -11 -11 -11 -11 -11 -11 -11 -12 -12 -12 -12 -12 -12 -12 -12 -12 -12 -12 -12 -12 -13 -12
-13 -13 -13 -13 -13 -13 -12 -12 -12 -12 -12 -12 -11 -11 -11 -11 -11 -12 -12 -12 -12 -12 -12 -11 -11 -11 -11 -11 -12 -11 -12 -12 -12 -12 -12 -12 -12 -12 -12 -12 -12 -12 -13 -13 -13 -12 -13
-13 -12 -13 -13 -13 -13 -13 -13 -13 -12 -12 -12 -12 -11 -11 -11 -11 -11 -12 -12 -11 -12 -12 -11 -11 -12 -12 -12 -12 -12 -12 -12 -12 -12 -12 -12 -12 -12 -12 -13 -13 -13 -13 -14 -14 -14 -14
-13 -13 -13 -13 -13 -12 -12 -12 -13 -13 -12 -12 -12 -12 -12 -12 -11 -11 -12 -12 -12 -12 -12 -12 -12 -12 -12 -12 -12 -12 -12 -12 -12 -12 -12 -12 -12 -12 -13 -13 -14 -13 -14 -15 -15 -15 -14
-13 -13 -13 -13 -13 -13 -12 -12 -13 -12 -12 -12 -12 -12 -12 -12 -12 -12 -12 -12 -12 -12 -12 -12 -12 -12 -12 -12 -12 -12 -12 -12 -12 -12 -13 -13 -13 -13 -14 -14 -14 -14 -15 -15 -16 -15 -15
-13 -13 -13 -13 -13 -13 -12 -12 -12 -12 -12 -12 -12 -12 -12 -12 -12 -12 -12 -12 -12 -12 -12 -12 -12 -12 -12 -12 -12 -12 -12 -12 -12 -13 -13 -13 -13 -13 -13 -14 -14 -15 -16 -16 -17 -17 -17
-13 -13 -13 -13 -13 -13 -13 -13 -12 -12 -12 -12 -12 -12 -12 -12 -12 -12 -12 -12 -12 -12 -12 -12 -12 -12 -12 -12 -12 -12 -12 -13 -13 -13 -13 -13 -13 -13 -13 -14 -14 -15 -16 -17 -17 -17 -18
-14 -14 -13 -14 -13 -13 -13 -13 -13 -13 -13 -12 -12 -12 -12 -12 -12 -12 -12 -12 -12 -13 -13 -13 -12 -13 -13 -13 -13 -13 -13 -13 -13 -13 -13 -13 -13 -14 -14 -14 -14 -15 -16 -17 -18 -18 -17
-14 -14 -14 -14 -13 -13 -13 -13 -13 -13 -13 -12 -12 -12 -13 -12 -12 -12 -12 -12 -13 -13 -13 -13 -13 -13 -13 -13 -13 -13 -13 -13 -13 -13 -13 -13 -13 -14 -15 -15 -15 -16 -16 -17 -18 -17 -18
-15 -14 -14 -14 -14 -13 -13 -14 -14 -14 -13 -13 -12 -13 -13 -13 -12 -13 -13 -13 -13 -13 -13 -13 -13 -13 -13 -13 -13 -13 -13 -13 -13 -14 -14 -14 -14 -15 -15 -16 -16 -17 -17 -18 -18 -19 -19
-16 -16 -15 -14 -14 -14 -14 -13 -14 -14 -13 -13 -12 -12 -13 -13 -13 -13 -13 -13 -13 -13 -13 -13 -13 -13 -13 -13 -13 -13 -13 -14 -14 -14 -15 -15 -15 -16 -16 -16 -17 -17 -17 -18 -18 -20 -20
-16 -16 -15 -15 -14 -14 -14 -14 -14 -14 -14 -14 -14 -13 -13 -13 -13 -13 -14 -14 -14 -14 -13 -13 -13 -14 -14 -14 -14 -14 -14 -14 -14 -15 -16 -17 -17 -17 -16 -17 -17 -16 -17 -18 -19 -20 -21
-17 -16 -15 -15 -15 -14 -14 -14 -14 -14 -15 -15 -15 -14 -14 -13 -13 -14 -14 -14 -14 -14 -14 -14 -14 -14 -15 -15 -15 -15 -15 -15 -16 -16 -17 -17 -17 -17 -17 -18 -17 -17 -18 -19 -20 -20 -21
-18 -17 -16 -16 -15 -15 -14 -14 -14 -15 -15 -14 -14 -15 -15 -14 -14 -14 -14 -15 -14 -14 -14 -14 -15 -15 -15 -16 -16 -16 -16 -16 -17 -17 -18 -18 -18 -18 -18 -18 -18 -18 -19 -19 -20 -20 -21
-19 -18 -17 -17 -16 -16 -15 -15 -14 -14 -14 -15 -14 -15 -15 -14 -15 -14 -14 -15 -15 -15 -15 -16 -16 -16 -16 -16 -17 -17 -17 -17 -18 -18 -18 -18 -18 -19 -19 -19 -19 -19 -20 -21 -21 -21 -21
-21 -21 -20 -18 -17 -16 -16 -15 -15 -14 -15 -15 -16 -15 -16 -16 -15 -15 -15 -16 -16 -16 -16 -16 -16 -16 -17 -17 -18 -18 -18 -18 -18 -18 -18 -19 -19 -19 -20 -20 -20 -20 -21 -21 -21 -21 -21
-24 -23 -22 -21 -20 -19 -18 -17 -16 -16 -16 -16 -16 -16 -16 -16 -15 -16 -15 -16 -16 -16 -17 -17 -17 -17 -18 -18 -19 -18 -18 -19 -19 -19 -19 -19 -19 -20 -20 -21 -21 -21 -22 -22 -22 -22 -22
-25 -25 -24 -24 -23 -22 -20 -20 -18 -17 -17 -17 -17 -17 -17 -17 -16 -17 -16 -16 -17 -17 -17 -17 -18 -18 -19 -19 -19 -19 -19 -19 -19 -19 -20 -20 -20 -21 -21 -21 -22 -22 -22 -22 -22 -22 -23
Height
5827 5827 5828 5830 5831 5832 5832 5832 5832 5832 5832 5833 5833 5832 5832 5832 5831 5831 5830 5829 5828 5828 5830 5831 5832 5833 5834 5835 5835 5835 5835 5834 5833 5833 5832 5831 5830 5828 5827 5826 5825 5825 5825 5826 5825 5825 5825
5825 5826 5827 5828 5829 5830 5831 5831 5830 5830 5830 5831 5830 5831 5830 5829 5829 5829 5828 5828 5828 5828 5829 5830 5831 5832 5833 5834 5833 5833 5833 5832 5832 5831 5831 5830 5829 5827 5825 5824 5824 5823 5823 5823 5822 5822 5821
5822 5824 5824 5825 5826 5827 5828 5829 5829 5828 5828 5828 5828 5828 5828 5828 5827 5826 5826 5827 5827 5827 5827 5828 5828 5829 5830 5832 5831 5831 5831 5830 5830 5830 5829 5828 5827 5825 5823 5822 5821 5821 5821 5820 5819 5818 5818
5819 5821 5822 5822 5824 5825 5825 5826 5826 5826 5826 5826 5825 5825 5825 5825 5825 5825 5824 5824 5825 5825 5825 5825 5825 5826 5827 5828 5829 5829 5829 5828 5828 5827 5826 5825 5824 5823 5821 5819 5818 5817 5816 5815 5816 5814 5814
5815 5816 5818 5820 5821 5821 5822 5823 5823 5823 5823 5823 5823 5823 5823 5823 5822 5822 5822 5822 5822 5821 5822 5821 5822 5822 5823 5824 5825 5825 5825 5825 5824 5824 5823 5822 5821 5820 5819 5817 5816 5814 5813 5811 5812 5810 5810
5811 5813 5814 5814 5815 5817 5817 5819 5820 5820 5820 5820 5821 5821 5821 5820 5820 5820 5819 5818 5818 5817 5817 5818 5818 5820 5820 5821 5821 5821 5821 5821 5820 5820 5820 5819 5818 5817 5816 5814 5813 5810 5808 5807 5806 5807 5804
5806 5808 5809 5810 5811 5812 5813 5814 5815 5817 5817 5817 5818 5818 5818 5817 5817 5816 5815 5815 5816 5815 5812 5813 5813 5814 5814 5816 5816 5816 5816 5815 5815 5815 5815 5814 5814 5813 5812 5810 5808 5807 5805 5803 5802 5801 5799
5802 5803 5804 5805 5807 5808 5809 5810 5811 5812 5813 5814 5815 5816 5816 5815 5814 5814 5813 5811 5811 5810 5809 5808 5808 5809 5809 5810 5810 5809 5810 5810 5810 5809 5809 5810 5809 5807 5806 5804 5803 5802 5800 5798 5796 5794 5792
5799 5799 5800 5801 5802 5803 5804 5806 5807 5808 5808 5809 5810 5811 5811 5811 5811 5810 5810 5808 5807 5806 5806 5805 5804 5804 5804 5805 5804 5804 5805 5804 5804 5804 5804 5804 5803 5802 5801 5799 5798 5796 5794 5791 5789 5787 5783
5795 5796 5796 5797 5798 5799 5800 5802 5803 5805 5805 5806 5806 5806 5807 5807 5809 5807 5807 5806 5804 5804 5803 5803 5802 5801 5801 5800 5800 5800 5799 5800 5799 5799 5799 5798 5797 5795 5794 5793 5791 5790 5788 5785 5781 5777 5773
5789 5791 5792 5794 5794 5795 5797 5798 5799 5800 5801 5801 5802 5802 5802 5803 5803 5804 5804 5803 5802 5801 5801 5801 5800 5799 5799 5799 5798 5796 5796 5795 5794 5794 5794 5793 5791 5790 5789 5788 5785 5784 5780 5777 5773 5769 5763
5783 5785 5786 5789 5790 5791 5793 5794 5795 5796 5796 5796 5798 5798 5799 5799 5800 5800 5800 5800 5799 5800 5798 5798 5797 5796 5796 5795 5794 5793 5793 5792 5791 5790 5787 5787 5786 5784 5783 5781 5778 5775 5772 5768 5763 5759 5753
5775 5777 5779 5782 5784 5786 5787 5788 5790 5791 5791 5792 5793 5794 5795 5795 5796 5796 5796 5796 5797 5795 5796 5795 5793 5793 5792 5791 5790 5789 5788 5787 5786 5785 5783 5781 5779 5777 5776 5773 5770 5766 5762 5758 5752 5746 5742
5765 5769 5771 5773 5776 5778 5780 5782 5783 5785 5786 5787 5788 5789 5790 5790 5791 5791 5791 5792 5791 5790 5790 5789 5789 5788 5788 5786 5786 5784 5784 5782 5780 5777 5775 5773 5772 5772 5769 5765 5761 5757 5752 5748 5740 5736 5732
5755 5758 5762 5764 5767 5769 5771 5774 5776 5778 5779 5780 5782 5783 5784 5785 5785 5786 5786 5786 5785 5785 5784 5783 5782 5782 5782 5780 5779 5778 5777 5775 5773 5771 5769 5764 5762 5761 5758 5754 5750 5745 5739 5735 5727 5724 5716
5745 5748 5751 5753 5756 5759 5762 5765 5768 5770 5772 5773 5774 5776 5777 5779 5780 5780 5780 5780 5779 5779 5779 5778 5777 5777 5776 5775 5773 5771 5769 5769 5765 5762 5759 5756 5752 5749 5746 5741 5736 5731 5726 5720 5714 5705 5701
5734 5737 5740 5743 5745 5748 5752 5755 5758 5761 5763 5765 5767 5768 5770 5771 5772 5773 5773 5773 5773 5772 5772 5772 5771 5769 5769 5766 5765 5763 5760 5758 5756 5753 5750 5746 5742 5738 5733 5729 5722 5718 5713 5708 5702 5695 5686
5723 5726 5730 5735 5736 5740 5742 5745 5748 5751 5754 5755 5758 5761 5761 5762 5765 5765 5765 5765 5766 5766 5764 5764 5763 5762 5760 5758 5756 5754 5752 5749 5746 5743 5740 5736 5730 5727 5722 5717 5711 5705 5699 5693 5686 5683 5672
5706 5714 5717 5724 5726 5729 5732 5734 5737 5740 5741 5745 5748 5751 5752 5753 5755 5755 5756 5756 5756 5758 5756 5756 5755 5754 5752 5750 5747 5745 5743 5740 5736 5733 5728 5724 5718 5714 5707 5704 5696 5691 5686 5681 5674 5667 5664
5693 5700 5702 5710 5716 5718 5721 5722 5724 5727 5731 5734 5739 5740 5741 5743 5745 5746 5746 5746 5747 5747 5747 5746 5746 5745 5742 5740 5737 5733 5731 5728 5725 5722 5717 5711 5707 5703 5697 5691 5684 5677 5671 5668 5660 5655 5649
5675 5683 5690 5697 5704 5707 5709 5711 5711 5715 5719 5722 5726 5728 5730 5733 5734 5736 5736 5737 5737 5736 5736 5736 5736 5733 5731 5728 5725 5723 5720 5715 5712 5709 5703 5697 5693 5688 5683 5678 5673 5667 5662 5656 5651 5644 5631
5658 5664 5674 5681 5688 5694 5696 5700 5701 5703 5706 5708 5713 5717 5719 5722 5724 5725 5726 5727 5726 5725 5725 5724 5723 5720 5719 5716 5714 5710 5707 5704 5700 5696 5691 5684 5679 5674 5670 5665 5661 5653 5651 5645 5637 5629 5621
5643 5648 5655 5663 5670 5677 5683 5689 5690 5693 5694 5697 5699 5703 5706 5710 5712 5713 5715 5715 5715 5714 5713 5712 5710 5708 5706 5704 5701 5698 5694 5691 5687 5682 5676 5672 5667 5662 5659 5653 5647 5642 5638 5632 5623 5616 5609
5627 5633 5640 5645 5652 5659 5665 5671 5679 5681 5682 5687 5688 5690 5693 5697 5699 5701 5701 5702 5702 5702 5701 5700 5698 5695 5694 5691 5688 5684 5681 5678 5674 5669 5664 5660 5655 5648 5645 5639 5633 5628 5625 5617 5609 5604 5597
5611 5617 5623 5628 5633 5640 5647 5654 5661 5664 5667 5672 5675 5679 5680 5682 5685 5688 5688 5688 5689 5689 5688 5685 5684 5683 5681 5678 5674 5671 5668 5664 5661 5657 5653 5648 5641 5634 5629 5625 5618 5616 5611 5603 5597 5592 5584
5597 5604 5608 5611 5615 5621 5628 5635 5644 5649 5653 5655 5661 5662 5664 5667 5670 5674 5674 5674 5676 5674 5674 5673 5671 5669 5667 5664 5661 5657 5654 5649 5647 5644 5640 5634 5627 5621 5616 5609 5603 5603 5596 5589 5582 5578 5569
5584 5588 5593 5595 5599 5606 5611 5618 5626 5634 5637 5642 5644 5646 5649 5652 5657 5659 5660 5661 5662 5662 5661 5659 5658 5656 5654 5651 5648 5646 5642 5638 5633 5630 5627 5621 5613 5607 5599 5594 5592 5590 5584 5577 5571 5565 5555
5573 5576 5581 5584 5586 5591 5597 5603 5611 5617 5620 5626 5630 5632 5635 5638 5641 5644 5645 5647 5647 5648 5648 5647 5645 5644 5641 5638 5636 5633 5628 5626 5620 5616 5612 5607 5601 5596 5588 5582 5580 5576 5571 5565 5557 5548 5540
5566 5570 5574 5575 5576 5581 5586 5590 5596 5603 5607 5611 5616 5619 5622 5625 5628 5629 5632 5633 5634 5634 5634 5633 5632 5630 5627 5625 5622 5618 5616 5612 5608 5604 5600 5594 5589 5583 5579 5572 5567 5562 5557 5550 5542 5535 5526
Wind_Speed
16 15 14 13 12 11 11 8 8 8 7 7 7 9 10 10 9 8 6 6 5 2 12 14 12 11 9 7 5 3 3 3 6 8 9 10 11 11 10 9 8 9 10 12 15 15 15
18 18 17 16 16 15 13 11 10 9 9 10 10 9 9 10 11 9 6 6 5 3 11 16 14 12 12 10 9 8 7 7 8 10 11 11 12 12 11 11 11 10 10 11 13 14 15
20 21 21 20 18 17 15 14 11 10 11 11 10 9 8 9 10 10 9 7 7 7 7 16 17 16 15 14 14 12 11 10 11 12 13 13 13 13 13 12 12 12 12 14 15 17 16
21 21 20 20 20 19 16 14 12 12 12 11 11 9 9 9 11 11 11 9 9 11 10 13 20 21 19 18 17 16 15 14 13 14 15 16 15 15 14 14 13 15 16 17 15 18 18
22 22 22 22 21 19 17 16 15 14 12 12 12 11 11 11 11 12 11 12 13 14 14 15 18 23 23 23 21 20 18 17 16 17 18 18 18 18 18 18 17 17 18 19 17 19 20
23 26 24 22 21 20 19 18 18 17 15 15 13 13 14 13 12 11 13 15 16 16 17 19 19 21 25 25 24 24 22 21 21 21 21 21 21 21 21 21 20 20 21 21 24 21 26
20 23 23 23 24 24 23 22 19 19 17 17 16 15 15 14 13 13 12 14 15 16 18 21 22 22 21 22 24 25 26 26 26 25 24 23 23 23 22 23 22 22 24 26 27 28 29
12 16 21 22 21 19 19 18 19 18 17 16 16 16 15 14 13 13 14 13 14 12 14 17 20 22 22 23 24 24 25 27 27 26 25 24 24 24 24 24 23 24 26 28 31 32 34
14 12 14 18 20 19 18 18 18 18 16 16 16 15 15 14 14 13 13 12 12 11 12 13 14 16 18 20 21 22 24 25 25 25 25 25 25 25 26 25 25 25 27 30 32 34 38
19 17 15 13 13 17 19 18 18 18 17 16 15 14 14 14 13 12 12 11 11 12 12 12 10 11 14 17 19 20 22 23 24 24 25 24 26 26 24 25 27 27 29 34 36 39 42
24 21 19 17 16 14 13 13 14 15 14 14 13 13 12 11 11 11 11 11 13 12 12 12 10 10 12 14 16 17 19 20 21 22 25 24 24 23 24 27 31 34 36 39 41 43 48
26 26 24 21 21 20 18 16 15 13 12 11 12 12 12 12 12 12 13 13 13 14 14 13 14 15 14 15 17 18 19 21 21 22 23 24 25 27 30 32 36 38 40 44 47 49 54
31 29 27 26 25 24 22 21 19 17 16 14 14 14 14 14 13 14 15 16 15 16 16 16 16 16 17 18 18 19 20 21 24 26 27 30 31 33 35 38 40 43 46 48 55 57 58
37 33 32 30 29 26 25 24 23 23 21 19 18 18 18 18 17 16 15 16 17 19 17 19 18 17 18 21 21 23 25 26 27 30 33 35 36 36 38 41 44 46 49 50 54 56 58
35 39 39 36 34 33 31 27 27 25 23 23 23 23 23 23 22 20 19 19 19 19 18 18 20 21 21 23 25 26 28 30 31 33 36 38 39 40 42 44 46 47 50 52 56 57 61
43 40 39 41 42 39 37 37 33 30 29 26 25 25 27 27 27 26 25 24 25 25 24 23 24 26 27 27 30 30 32 33 34 34 37 38 41 41 42 45 47 51 54 55 55 59 63
45 43 44 43 46 45 41 40 39 37 34 32 30 28 29 29 30 31 29 27 25 25 26 26 27 30 31 32 33 34 35 34 33 33 35 39 42 46 47 48 52 54 55 54 54 55 58
58 53 50 45 44 47 45 42 43 43 42 40 37 32 31 33 33 33 33 34 33 29 30 30 33 35 36 37 38 38 36 34 35 36 42 44 49 50 54 55 57 59 58 55 53 54 57
58 53 58 54 52 50 52 48 46 47 48 47 42 39 40 39 36 37 37 38 39 38 39 38 38 38 38 37 38 37 37 38 40 42 46 50 53 55 60 59 61 59 56 51 53 58 58
70 59 56 60 54 50 48 53 55 53 51 50 46 45 42 42 40 39 40 40 39 38 39 40 39 39 40 39 40 42 42 42 43 45 50 54 56 56 57 58 59 57 56 53 58 62 58
70 70 65 67 54 64 55 48 50 47 51 54 51 46 46 45 41 41 41 39 40 43 45 46 45 46 45 42 38 40 42 44 47 51 54 56 57 57 57 53 53 54 55 57 58 56 57
67 71 73 72 66 62 60 59 54 52 55 54 51 50 46 45 44 44 42 41 43 44 46 44 46 42 42 42 42 44 46 47 49 52 56 56 53 52 53 55 55 58 57 60 60 55 54
64 70 73 79 75 73 68 55 53 56 57 54 51 51 50 49 49 49 47 45 45 44 46 45 43 42 41 43 45 47 47 49 52 55 52 50 47 50 55 55 58 61 59 60 58 53 53
66 67 71 77 77 73 76 73 68 60 54 52 54 56 53 54 52 52 50 46 43 41 42 41 42 43 44 46 47 47 48 50 53 52 49 50 51 54 56 55 60 61 60 58 55 54 55
58 63 69 74 78 76 74 75 71 67 66 67 63 59 55 59 60 58 50 43 43 44 44 44 45 46 47 45 46 49 51 53 50 49 51 53 58 60 59 59 61 59 56 54 54 54 57
54 62 67 67 68 71 74 72 72 70 67 65 69 60 61 62 59 55 51 48 46 46 47 46 47 47 45 47 50 53 52 52 51 54 53 52 55 56 56 57 58 57 54 53 54 55 58
44 49 54 55 61 67 68 70 69 69 65 59 53 57 50 55 59 60 54 48 49 49 47 46 47 48 48 49 51 51 50 52 53 53 55 58 56 55 56 54 54 55 54 54 54 58 62
33 36 36 39 42 47 53 58 62 62 59 60 55 54 52 53 55 53 54 52 50 50 48 48 50 51 51 50 50 52 55 53 50 52 53 54 54 53 53 54 55 53 53 54 57 61 64
30 28 28 28 28 33 41 44 50 52 52 51 55 54 54 54 53 50 52 52 50 50 50 51 53 54 52 48 50 50 49 55 61 60 52 51 50 51 51 53 52 53 54 57 60 63 66
Wind_Direction
214 214 215 218 229 240 250 254 255 264 270 271 261 255 259 270 279 280 309 345 343 318 200 193 191 194 195 202 226 252 275 313 334 333 337 340 343 339 333 315 302 295 291 285 280 278 279
221 223 224 228 236 242 250 254 256 261 268 264 264 268 266 271 272 266 281 309 323 314 214 209 212 216 226 233 247 258 266 292 318 325 328 333 336 334 332 318 308 296 296 286 281 278 278
226 229 230 234 237 241 247 251 255 261 265 271 275 269 268 269 277 280 270 273 302 292 248 225 227 232 237 245 255 260 267 284 300 310 322 322 328 331 331 320 303 296 294 289 285 278 273
232 233 234 235 237 240 242 246 253 257 261 264 263 260 262 272 281 276 273 271 278 278 262 242 237 238 243 249 256 260 266 274 289 298 306 313 315 320 322 319 307 294 288 284 282 280 279
236 236 239 241 241 240 240 244 251 258 258 261 263 265 268 269 272 270 267 269 272 269 260 255 250 246 247 250 254 259 264 272 279 288 296 301 306 313 315 313 307 301 295 291 285 282 278
238 238 235 235 238 242 243 249 258 264 263 265 267 271 273 271 262 255 261 269 270 266 261 256 257 256 253 256 258 262 266 271 276 281 288 294 301 304 305 305 301 300 297 293 291 287 284
235 238 241 243 246 246 246 250 252 260 263 268 269 267 267 268 271 270 268 273 272 268 256 251 249 255 257 260 261 261 263 266 270 275 282 288 293 296 297 299 295 295 295 296 295 294 291
249 243 242 238 242 249 250 247 252 256 259 263 264 265 266 269 270 275 277 281 277 272 266 263 256 254 255 253 253 256 258 260 265 272 279 284 289 289 291 290 289 291 292 292 294 294 292
246 248 250 252 248 243 248 251 252 251 248 249 255 262 267 273 277 280 282 285 283 281 275 273 264 254 252 253 254 257 259 263 268 274 279 283 284 286 291 288 287 288 291 292 293 293 291
238 238 240 243 248 250 245 244 247 249 249 250 253 259 265 270 278 281 281 282 283 284 280 281 279 271 263 259 260 262 264 268 273 277 279 281 284 287 287 289 289 289 290 291 290 288 289
240 240 239 243 241 242 246 245 243 245 247 254 255 258 262 268 274 276 282 288 292 285 277 279 286 287 283 279 278 279 277 278 279 281 284 286 286 289 291 291 292 294 294 293 291 290 289
244 241 241 242 243 244 240 237 239 241 245 249 259 263 265 271 278 281 283 283 286 286 286 280 282 289 289 290 288 288 290 290 290 290 289 288 289 289 290 291 293 295 295 293 293 293 295
244 246 244 246 249 247 245 244 244 243 246 247 253 258 263 268 271 278 283 284 283 284 286 288 290 289 288 291 292 292 293 295 295 293 290 289 290 291 293 294 295 295 295 296 297 299 298
243 246 247 247 249 251 252 248 246 248 249 251 252 255 258 259 265 272 278 282 283 285 287 287 286 288 288 289 290 290 290 290 291 292 293 294 295 297 297 295 294 294 294 294 293 295 295
233 237 244 249 248 249 250 256 254 251 251 252 254 254 255 257 257 262 271 277 281 282 281 281 285 289 292 291 291 291 291 293 292 293 293 295 295 297 297 296 296 297 294 295 295 297 296
225 240 240 247 251 248 248 251 254 252 250 252 254 258 259 260 262 263 270 277 278 280 282 286 288 291 290 289 290 293 296 297 292 291 291 293 296 301 299 299 298 298 300 300 299 298 299
237 232 232 243 246 245 246 249 249 248 244 249 254 257 262 262 263 262 265 270 274 278 280 286 292 296 295 292 291 292 296 298 296 293 296 297 299 300 299 300 299 300 300 300 298 297 298
240 244 247 245 241 245 247 246 248 246 247 249 253 258 262 265 264 266 265 267 270 279 283 290 295 297 297 296 295 294 298 296 294 297 303 303 302 303 303 303 302 302 302 300 299 302 299
237 252 248 250 243 243 246 248 245 244 244 246 251 256 263 261 263 265 266 267 269 274 280 287 291 293 294 296 300 300 300 294 292 295 303 304 302 300 302 303 303 303 301 300 301 301 303
233 248 241 241 242 236 240 246 245 242 243 247 249 255 256 259 260 263 265 267 270 276 281 284 288 290 291 293 297 298 295 295 296 296 299 302 303 302 302 302 304 304 300 300 300 302 300
246 237 244 244 245 241 239 233 239 238 242 243 249 252 256 258 259 264 267 267 269 275 281 285 288 287 288 290 291 292 293 294 296 297 299 299 302 302 301 302 302 298 297 299 301 300 297
255 253 243 242 240 240 240 243 237 235 243 243 247 250 253 252 259 264 266 269 272 277 282 283 285 283 283 283 286 288 290 292 295 296 296 296 299 299 299 299 299 297 300 298 300 298 296
260 254 251 242 244 241 238 233 234 236 240 244 247 251 255 253 258 263 268 272 275 278 279 279 277 277 278 280 282 285 286 289 292 296 295 295 297 297 300 300 299 300 299 299 297 297 298
262 260 253 247 244 243 241 242 235 237 236 244 245 246 251 255 257 258 264 267 272 268 270 273 275 277 278 280 282 283 284 289 296 293 292 296 298 299 301 300 298 301 303 299 299 299 299
252 254 252 246 244 242 244 244 243 246 243 244 245 247 249 256 258 260 258 261 264 269 272 275 278 277 281 282 286 285 286 292 291 290 295 299 298 297 297 296 297 301 300 298 298 299 300
245 245 247 244 244 243 243 245 248 250 249 253 249 240 242 248 250 254 256 261 265 267 271 277 278 280 278 282 284 285 288 291 288 293 298 298 299 297 297 295 299 301 298 298 298 300 301
239 240 240 240 240 241 241 244 246 249 250 249 235 239 242 242 249 251 254 259 265 269 274 277 278 276 279 284 285 286 288 284 288 292 296 295 294 296 296 297 298 298 298 299 301 303 306
236 235 238 235 232 236 236 236 237 241 244 245 247 249 249 252 255 255 257 260 263 267 271 273 275 278 280 280 282 285 285 284 294 298 296 294 294 295 294 296 296 297 298 301 303 305 308
233 233 238 242 241 241 240 239 236 238 243 244 248 250 252 252 255 257 258 260 264 267 270 272 276 276 278 280 288 283 286 287 295 297 294 292 293 294 296 295 297 297 300 303 306 308 310